WetterOnline ( https://www.wetteronline.de )

Wetter aktuell Ghedi

Aktuelles Wetter: Ghedi (97m)

6-stündlich | Neueste Meldungen
Ortszeit Temperatur Wetter
So, 20.10. 20:00 20.0° C wolkig
So, 20.10. 14:00 21.3° C wolkig
So, 20.10. 8:00 16.0° C leicht bewölkt
So, 20.10. 2:00 17.8° C wolkig
Sa, 19.10. 20:00 18.0° C wolkig
Sa, 19.10. 14:00 17.1° C wolkig
Sa, 19.10. 8:00 16.0° C leichter Regen
Sa, 19.10. 2:00 16.0° C leicht bewölkt
Ortszeit Temperatur Wetter
So, 20.10. 23:00 18.8° C wolkig, nach Regen
So, 20.10. 22:55 19° C leicht bewölkt
So, 20.10. 22:00 19.6° C leichter Regen
So, 20.10. 21:55 20° C leichter Regen
So, 20.10. 21:25 20° C leichter Regen
So, 20.10. 21:00 19.9° C wolkig
So, 20.10. 20:55 20° C leicht bewölkt
So, 20.10. 20:00 20.0° C wolkig
So, 20.10. 19:55 20° C leicht bewölkt
So, 20.10. 19:00 20.4° C wolkig
Ortszeit Relative Feuchte Sichtweite
So, 20.10. 20:00 74% 10 km
So, 20.10. 14:00 65% 20 km
So, 20.10. 8:00 88% 10 km
So, 20.10. 2:00 80% 10 km
Sa, 19.10. 20:00 71% 10 km
Sa, 19.10. 14:00 80% 5.0 km
Sa, 19.10. 8:00 84% 10 km
Sa, 19.10. 2:00 86% 10 km
Ortszeit Relative Feuchte Sichtweite
So, 20.10. 23:00 84% 5.0 km
So, 20.10. 22:55 83% 5.0 km
So, 20.10. 22:00 76% 4.0 km
So, 20.10. 21:55 73% 4.0 km
So, 20.10. 21:25 83% 5.0 km
So, 20.10. 21:00 74% 10 km
So, 20.10. 20:55 73% >10 km
So, 20.10. 20:00 74% 10 km
So, 20.10. 19:55 73% >10 km
So, 20.10. 19:00 73% 10 km
Ortszeit Niederschlagsmenge Niederschlagsart
So, 20.10. 20:00 0.0 l/m2 in 12 Std. -
So, 20.10. 14:00 0.0 l/m2 in 6 Std. -
So, 20.10. 8:00 0.0 l/m2 in 12 Std. -
So, 20.10. 2:00 0.0 l/m2 in 6 Std. -
Sa, 19.10. 20:00 2 l/m2 in 12 Std. -
Sa, 19.10. 14:00 2 l/m2 in 6 Std. Regen
Sa, 19.10. 8:00 1 l/m2 in 12 Std. Regen
Sa, 19.10. 2:00 0.0 l/m2 in 6 Std. -
Ortszeit Niederschlagsmenge Niederschlagsart
So, 20.10. 23:00 keine Meldung -
So, 20.10. 22:55 keine Meldung -
So, 20.10. 22:00 keine Meldung -
So, 20.10. 21:55 keine Meldung -
So, 20.10. 21:25 keine Meldung -
So, 20.10. 21:00 keine Meldung -
So, 20.10. 20:55 keine Meldung -
So, 20.10. 20:00 keine Meldung -
So, 20.10. 19:55 keine Meldung -
So, 20.10. 19:00 keine Meldung -
Ortszeit Stärke Spitze Richtung
km/h Bft. km/h Grad Sektor
So, 20.10. 20:00 17 3 - 80° O
So, 20.10. 14:00 15 3 - 130° SO
So, 20.10. 8:00 13 3 - 90° O
So, 20.10. 2:00 9 2 - 90° O
Sa, 19.10. 20:00 11 2 - 70° O
Sa, 19.10. 14:00 17 3 - 70° O
Sa, 19.10. 8:00 9 2 - 90° O
Sa, 19.10. 2:00 6 1 - 350° N
Ortszeit Stärke Spitze Richtung
km/h Bft. km/h Grad Sektor
So, 20.10. 23:00 11 2 - 60° NO
So, 20.10. 22:55 11 2 - 60° NO
So, 20.10. 22:00 19 3 - 300° NW
So, 20.10. 21:55 19 3 - 300° NW
So, 20.10. 21:25 13 3 - 120° SO
So, 20.10. 21:00 13 3 - 80° O
So, 20.10. 20:55 13 3 - 80° O
So, 20.10. 20:00 17 3 - 80° O
So, 20.10. 19:55 17 3 - 80° O
So, 20.10. 19:00 15 3 - 90° O
Ortszeit Untergrenze Bedeckung Gattung
total tief tief mittel hoch
So, 20.10. 20:00 1500 m 6/8 3/8 Sc Ac -
So, 20.10. 14:00 1200 m 6/8 3/8 Cu Ac -
So, 20.10. 8:00 1500 m 4/8 2/8 Sc Ac -
So, 20.10. 2:00 1500 m 6/8 2/8 Sc Ac -
Sa, 19.10. 20:00 1350 m 6/8 3/8 Sc Ac -
Sa, 19.10. 14:00 1050 m 7/8 2/8 Cu Ac -
Sa, 19.10. 8:00 1800 m 7/8 7/8 - Ac -
Sa, 19.10. 2:00 1800 m 5/8 5/8 - Ac -
Ortszeit Bedeckungsgrad in Achtel und Wolkenuntergrenze
So, 20.10. 23:00 2(900m) 3(1200m)
So, 20.10. 22:55 1-2(900m) 3-4(1200m)
So, 20.10. 22:00 3(750m) 3(1050m)
So, 20.10. 21:55 3-4(750m) 3-4(1050m)
So, 20.10. 21:25 1-2(900m) 3-4(1200m)
So, 20.10. 21:00 3(1350m) 3(1800m)
So, 20.10. 20:55 3-4(1350m) 3-4(1800m)
So, 20.10. 20:00 3(1500m) 3(1800m)
So, 20.10. 19:55 3-4(1500m) 3-4(1800m)
So, 20.10. 19:00 3(1500m) 3(1800m)
Ortszeit Luftdruck NN (hPa) Tendenz (hPa in 3 Std.)
So, 20.10. 20:00 1017 + 0,2
So, 20.10. 14:00 1017 - 0,2
So, 20.10. 8:00 1016 + 0,5
So, 20.10. 2:00 1016 + 0,3
Sa, 19.10. 20:00 1015 + 0,4
Sa, 19.10. 14:00 1015 - 0,3
Sa, 19.10. 8:00 1015 - 1,0
Sa, 19.10. 2:00 1016 - 0,6
Ortszeit Luftdruck NN (hPa) Tendenz (hPa in 3 Std.)
So, 20.10. 23:00 1018 + 1,5
So, 20.10. 22:55 1018 keine Meldung
So, 20.10. 22:00 1017 + 0,4
So, 20.10. 21:55 1017 keine Meldung
So, 20.10. 21:25 1017 keine Meldung
So, 20.10. 21:00 1017 + 0,5
So, 20.10. 20:55 1017 keine Meldung
So, 20.10. 20:00 1017 + 0,2
So, 20.10. 19:55 1017 keine Meldung
So, 20.10. 19:00 1017 + 0,2
Ortszeit Schneehöhe (cm)
So, 20.10. 20:00 -
So, 20.10. 14:00 -
So, 20.10. 8:00 0
So, 20.10. 2:00 -
Sa, 19.10. 20:00 -
Sa, 19.10. 14:00 -
Sa, 19.10. 8:00 0
Sa, 19.10. 2:00 -
Ortszeit Schneehöhe (cm)
So, 20.10. 23:00 -
So, 20.10. 22:55 -
So, 20.10. 22:00 -
So, 20.10. 21:55 -
So, 20.10. 21:25 -
So, 20.10. 21:00 -
So, 20.10. 20:55 -
So, 20.10. 20:00 -
So, 20.10. 19:55 -
So, 20.10. 19:00 -
Link zu dieser Seite / Seite empfehlen

Das Wetter in ...